TimeCDT,TemperatureF,Dew PointF,Humidity,Sea Level PressureIn,VisibilityMPH,Wind Direction,Wind SpeedMPH,Gust SpeedMPH,PrecipitationIn,Events,Conditions,WindDirDegrees,DateUTC
12:56 AM,62.1,55.9,80,30.14,-9999.0,Calm,Calm,-,N/A,,Unknown,0,2013-07-01 05:56:00
1:56 AM,60.1,55.0,83,30.15,-9999.0,Calm,Calm,-,N/A,,Unknown,0,2013-07-01 06:56:00
2:56 AM,60.1,54.0,80,30.15,-9999.0,Calm,Calm,-,N/A,,Unknown,0,2013-07-01 07:56:00
3:56 AM,59.0,55.0,87,30.15,-9999.0,Calm,Calm,-,N/A,,Unknown,0,2013-07-01 08:56:00
4:56 AM,57.0,54.0,89,30.16,-9999.0,NNW,5.8,-,N/A,,Unknown,340,2013-07-01 09:56:00
5:56 AM,57.9,54.0,87,30.17,-9999.0,NNW,4.6,-,N/A,,Unknown,330,2013-07-01 10:56:00
6:56 AM,62.1,55.9,80,30.18,-9999.0,NNW,4.6,-,N/A,,Unknown,340,2013-07-01 11:56:00
7:56 AM,68.0,57.9,70,30.18,-9999.0,North,5.8,-,N/A,,Unknown,350,2013-07-01 12:56:00
8:56 AM,72.0,59.0,64,30.19,-9999.0,North,8.1,-,N/A,,Unknown,350,2013-07-01 13:56:00
9:56 AM,75.9,59.0,56,30.19,-9999.0,North,5.8,-,N/A,,Unknown,360,2013-07-01 14:56:00
10:56 AM,79.0,55.9,45,30.18,-9999.0,Variable,4.6,-,N/A,,Unknown,0,2013-07-01 15:56:00
11:56 AM,81.0,51.1,35,30.18,-9999.0,NE,3.5,-,N/A,,Unknown,50,2013-07-01 16:56:00
12:56 PM,82.0,48.9,31,30.17,-9999.0,Variable,6.9,-,N/A,,Unknown,0,2013-07-01 17:56:00
1:56 PM,84.0,50.0,31,30.17,-9999.0,NE,8.1,-,N/A,,Unknown,40,2013-07-01 18:56:00
2:56 PM,84.0,48.9,29,30.15,-9999.0,ENE,8.1,-,N/A,,Unknown,70,2013-07-01 19:56:00
3:56 PM,82.9,48.0,29,30.14,-9999.0,NNE,4.6,-,N/A,,Unknown,20,2013-07-01 20:56:00
4:56 PM,84.0,50.0,31,30.14,-9999.0,NNE,8.1,-,N/A,,Unknown,20,2013-07-01 21:56:00
5:56 PM,84.0,48.9,29,30.13,-9999.0,Calm,Calm,-,N/A,,Unknown,0,2013-07-01 22:56:00
6:56 PM,82.9,51.1,33,30.12,-9999.0,NE,3.5,-,N/A,,Unknown,50,2013-07-01 23:56:00
7:56 PM,80.1,52.0,38,30.12,-9999.0,NE,5.8,-,N/A,,Unknown,40,2013-07-02 00:56:00
8:56 PM,75.9,55.0,48,30.11,-9999.0,NNE,3.5,-,N/A,,Unknown,30,2013-07-02 01:56:00
9:56 PM,68.0,57.0,68,30.12,-9999.0,West,3.5,-,N/A,,Unknown,280,2013-07-02 02:56:00
10:56 PM,64.9,57.9,78,30.12,-9999.0,WNW,4.6,-,N/A,,Unknown,300,2013-07-02 03:56:00
11:56 PM,61.0,55.9,83,30.12,-9999.0,Calm,Calm,-,N/A,,Unknown,0,2013-07-02 04:56:00